Change the Weather History Date:

Thursday, April 4, 2013

  Actual Average Record
Temperature  
Mean Temperature 39 °F 43 °F  
Max Temperature 54 °F 53 °F 77 °F (1921)
Min Temperature 23 °F 34 °F 13 °F (1971)
Degree Days  
Heating Degree Days 26 22  
Month to date heating degree days 126 90  
Since 1 July heating degree days 5639 5777  
Cooling Degree Days 0 0  
Month to date cooling degree days 0 0  
Year to date cooling degree days 0 1  
Moisture  
Dew Point 19 °F    
Average Humidity 49    
Maximum Humidity 74    
Minimum Humidity 24    
Precipitation  
Precipitation T in 0.10 in 1.27 in (2003)
Month to date precipitation T 0.41  
Year to date precipitation 8.00 6.66  
Snow  
Snow 0.00 in 0.20 in 2.50 in (1920)
Month to date snowfall T 0.6  
Since 1 July snowfall 65.3 73.7  
Snow Depth 0.00 in    
Sea Level Pressure  
Sea Level Pressure 30.14 in    
Wind  
Wind Speed 11 mph (SW)    
Max Wind Speed 20 mph    
Max Gust Speed 25 mph    
Visibility 10 miles    
Events      
T = Trace of Precipitation, MM = Missing Value Source: NWS Daily Summary

Daily Weather History Graph

Daily Weather History Graph

Search for Another Location

Airport or City:

Trip Planner

Search our weather history database for the weather conditions in past years. The results will help you decide how hot, cold, wet, or windy it might be!

Date:

Astronomy

Apr. 04, 2013 Rise Set
Actual Time 7:18 AM EDT 8:12 PM EDT
Civil Twilight 6:49 AM EDT 8:40 PM EDT
Nautical Twilight 6:15 AM EDT 9:15 PM EDT
Astronomical Twilight 5:40 AM EDT 9:50 PM EDT
Moon 3:53 AM EDT (4/4) 2:21 PM EDT (4/4)
Length of Visible Light 13h 51m
Length of Day
12h 53m
Waning Crescent, 34% of the Moon is Illuminated
Apr 4
Waning Crescent
Apr 10
New
Apr 18
First Quarter
Apr 25
Full
May 2
Last Quarter

Hourly Weather History & Observations

Time (EDT) Temp. Windchill Dew Point Humidity Pressure Visibility Wind Dir Wind Speed Gust Speed Precip Events Conditions
12:53 AM 28.9 °F - 18.0 °F 64% 30.35 in 10.0 mi Calm Calm - N/A   Clear
1:53 AM 26.1 °F 20.5 °F 17.1 °F 69% 30.34 in 10.0 mi SSE 4.6 mph - N/A   Clear
2:53 AM 25.0 °F 19.3 °F 18.0 °F 75% 30.32 in 10.0 mi South 4.6 mph - N/A   Clear
3:53 AM 24.1 °F 16.0 °F 17.1 °F 75% 30.29 in 10.0 mi South 6.9 mph - N/A   Clear
4:53 AM 26.1 °F 16.8 °F 18.0 °F 71% 30.28 in 10.0 mi South 9.2 mph - N/A   Clear
5:53 AM 28.9 °F 19.2 °F 18.0 °F 64% 30.26 in 10.0 mi South 11.5 mph - N/A   Clear
6:53 AM 30.0 °F 20.5 °F 17.1 °F 59% 30.24 in 10.0 mi South 11.5 mph - N/A   Clear
7:53 AM 30.9 °F 23.5 °F 16.0 °F 54% 30.25 in 10.0 mi South 8.1 mph - N/A   Partly Cloudy
8:53 AM 35.1 °F 26.9 °F 17.1 °F 48% 30.24 in 10.0 mi South 11.5 mph - N/A   Partly Cloudy
9:53 AM 39.9 °F 33.4 °F 17.1 °F 40% 30.21 in 10.0 mi SSW 10.4 mph - N/A   Partly Cloudy
10:53 AM 45.0 °F 38.9 °F 19.0 °F 36% 30.19 in 10.0 mi SW 12.7 mph - N/A   Partly Cloudy
11:53 AM 48.0 °F - 19.9 °F 33% 30.16 in 10.0 mi West 17.3 mph 23.0 mph N/A   Partly Cloudy
12:53 PM 50.0 °F - 21.0 °F 32% 30.13 in 10.0 mi WSW 15.0 mph 21.9 mph N/A   Partly Cloudy
1:53 PM 51.1 °F - 21.0 °F 31% 30.10 in 10.0 mi SW 15.0 mph - N/A   Partly Cloudy
2:53 PM 53.1 °F - 19.9 °F 27% 30.06 in 10.0 mi West 17.3 mph - N/A   Partly Cloudy
3:53 PM 53.1 °F - 19.0 °F 26% 30.04 in 10.0 mi West 15.0 mph 24.2 mph N/A   Partly Cloudy
4:53 PM 53.1 °F - 19.0 °F 26% 30.02 in 10.0 mi West 17.3 mph 23.0 mph N/A   Partly Cloudy
5:53 PM 52.0 °F - 18.0 °F 26% 29.99 in 10.0 mi WSW 17.3 mph 21.9 mph N/A   Partly Cloudy
6:53 PM 51.1 °F - 16.0 °F 25% 29.99 in 10.0 mi SW 9.2 mph - N/A   Partly Cloudy
7:53 PM 50.0 °F - 17.1 °F 27% 30.00 in 10.0 mi West 9.2 mph - N/A   Mostly Cloudy
8:53 PM 48.9 °F - 21.0 °F 33% 29.99 in 10.0 mi WSW 8.1 mph - N/A   Overcast
9:53 PM 46.9 °F - 25.0 °F 42% 29.98 in 10.0 mi SW 5.8 mph - 0.00 in   Mostly Cloudy
10:53 PM 46.0 °F 44.8 °F 26.1 °F 46% 29.97 in 10.0 mi WSW 3.5 mph - N/A   Mostly Cloudy
11:53 PM 45.0 °F 41.2 °F 25.0 °F 46% 29.97 in 10.0 mi WNW 6.9 mph - N/A   Mostly Cloudy